Theta_e
344 345 342 340 339 341 343 344 343 343 345 348 348 349 349 349 348 347 344 345 343 346 344 344 346 351 348 349 349 348 348 347
343 344 343 341 339 340 343 344 343 343 345 347 346 346 345 344 344 344 341 339 338 339 341 341 341 344 345 345 343 345 347 346
310 323 336 342 339 341 343 344 342 344 344 343 343 344 343 342 341 342 340 337 337 340 341 341 341 342 343 342 342 337 337 328
314 329 335 341 342 342 344 344 343 343 344 341 341 341 341 341 341 343 345 342 342 341 341 341 343 342 342 339 336 325 319 321
311 319 322 335 339 344 345 345 346 345 344 341 343 343 344 343 343 347 347 343 341 340 341 336 337 337 332 325 321 319 319 322
321 323 322 326 333 339 344 350 347 347 344 345 347 347 346 345 344 345 347 343 339 337 340 327 326 327 326 322 320 318 320 319
328 331 331 331 330 334 345 347 347 349 347 346 345 344 342 344 341 340 341 344 341 334 330 326 326 323 322 321 320 320 317 316
331 333 335 334 335 335 335 335 338 344 345 344 341 339 340 340 340 340 336 337 337 327 326 326 324 321 320 319 316 316 316 314
328 330 329 329 327 325 326 330 330 332 334 335 335 331 334 335 335 335 335 332 331 328 325 324 321 318 316 317 315 314 314 315
326 326 323 322 321 321 322 325 326 329 329 329 331 329 328 327 327 328 329 329 328 327 322 320 317 316 317 315 313 312 312 313
321 322 320 320 319 319 319 320 322 323 325 326 326 326 325 324 324 323 325 328 326 323 322 319 319 317 314 315 314 313 309 310
320 319 318 318 318 317 317 317 318 320 321 321 320 319 318 320 322 321 322 323 323 324 323 320 316 315 315 315 314 311 310 308
313 315 318 316 315 312 313 316 316 317 318 318 318 318 318 319 319 318 319 319 322 322 322 321 320 318 316 315 314 311 310 309
305 307 308 309 308 309 309 309 309 310 315 316 315 314 314 316 318 317 317 317 316 318 319 319 316 316 316 315 314 314 313 311
300 302 303 305 305 305 307 306 308 310 308 309 313 314 314 313 315 317 317 316 317 315 317 317 314 313 313 312 311 310 310 309
300 300 300 302 304 304 304 304 304 308 309 309 309 310 313 313 315 315 313 314 313 314 313 313 313 313 313 312 310 309 309 310
299 299 299 299 301 302 303 303 303 303 305 307 307 308 309 308 310 312 313 313 315 315 313 313 313 313 313 311 309 309 309 309
297 297 298 298 298 298 299 299 299 299 302 303 303 303 305 307 308 309 310 311 312 313 313 313 312 312 311 313 311 311 310 309
295 295 296 295 295 295 296 297 297 297 298 300 299 300 301 303 304 306 307 309 310 311 313 312 312 313 311 310 307 307 308 307
293 293 294 294 294 295 295 295 295 296 296 298 297 298 299 299 301 302 304 305 307 308 309 311 311 312 310 307 306 307 306 305
Wind_Speed
11 11 12 14 8 6 7 5 3 1 2 2 2 2 2 3 4 4 4 3 3 3 3 2 2 7 3 4 4 3 3 3
15 14 13 12 12 9 4 4 5 8 4 4 4 3 3 3 3 4 3 2 4 3 3 4 3 1 4 4 3 4 2 1
8 9 10 11 14 14 10 10 9 8 7 5 4 4 4 3 3 4 4 4 4 3 4 3 3 3 4 2 3 2 2 4
6 7 6 13 11 12 12 10 9 9 6 7 5 3 4 4 3 4 5 4 3 4 3 1 3 4 2 2 1 2 2 2
6 6 7 5 3 6 8 7 8 9 7 4 3 4 4 4 4 6 6 5 5 4 2 2 2 1 3 3 2 2 3 3
10 11 10 8 8 8 6 5 6 5 2 4 5 4 4 4 4 3 4 3 3 2 2 3 2 4 3 3 2 3 4 5
11 13 11 10 9 9 9 7 6 5 3 3 2 4 3 4 3 2 1 2 4 2 3 2 4 4 3 2 3 4 5 5
9 12 11 11 11 12 11 7 7 4 4 4 3 2 2 2 3 2 1 3 4 5 4 4 3 3 4 3 6 5 3 3
7 10 9 11 11 12 8 9 6 5 4 2 1 1 2 4 4 5 4 5 6 6 4 4 3 4 4 5 3 5 4 6
9 10 11 11 8 7 8 7 6 6 3 2 2 3 3 3 3 6 5 5 5 4 5 4 5 4 5 6 6 3 3 4
10 11 10 10 10 8 9 7 8 7 5 3 3 3 3 3 4 3 3 4 5 4 5 4 4 3 4 5 4 5 2 2
11 10 9 8 7 7 8 7 7 7 8 6 6 3 2 2 1 1 4 5 4 4 3 1 3 4 5 3 3 2 2 2
10 8 7 8 8 9 9 10 9 6 7 7 5 5 3 3 4 3 4 4 5 6 6 6 3 2 4 4 4 1 2 2
16 16 16 15 14 14 14 12 13 13 9 7 6 4 1 2 1 2 4 3 3 4 4 5 4 5 3 2 1 1 1 2
17 17 15 14 15 13 13 14 14 11 9 9 8 8 6 4 6 5 4 3 2 5 5 6 4 5 5 5 3 1 3 2
13 12 10 10 11 11 11 9 10 10 9 10 8 8 4 5 5 5 3 4 5 4 6 5 6 6 5 5 3 3 3 3
8 8 10 10 11 12 13 13 12 11 10 8 6 6 7 6 7 6 5 6 4 6 7 7 7 7 7 7 5 4 3 3
9 10 11 8 8 9 10 9 8 8 9 7 8 8 8 7 6 7 7 6 5 6 6 5 5 5 4 4 3 3 4 3
8 7 7 7 7 6 7 7 7 7 7 7 7 9 11 9 6 7 6 6 7 6 6 6 6 6 7 5 4 5 4 4
6 8 8 8 8 9 8 6 6 6 7 6 7 7 8 9 10 7 7 7 7 7 6 6 6 7 6 6 5 3 4 5
Wind_Direction
172 195 202 191 180 179 181 169 128 160 322 152 160 168 168 191 201 186 179 178 195 204 220 239 232 249 253 277 290 284 291 312
190 208 208 176 175 182 161 142 167 187 173 186 178 169 182 198 206 190 175 193 216 220 214 222 223 242 250 245 303 307 283 289
225 223 214 181 180 172 177 172 190 193 185 175 176 189 190 194 199 201 189 208 222 227 230 219 196 203 242 227 224 296 25 29
146 155 177 181 172 165 174 177 194 199 187 185 179 182 166 179 193 210 207 209 186 196 225 230 246 198 199 200 141 94 53 16
65 51 68 63 68 110 164 175 172 187 191 168 148 181 171 181 201 204 197 197 180 164 130 186 278 18 90 75 80 93 37 8
83 82 73 64 76 84 88 90 91 91 126 155 163 174 187 189 198 194 184 185 215 144 57 56 61 88 87 90 39 54 35 18
60 69 66 62 59 60 61 64 77 94 82 86 129 165 171 184 187 158 138 122 101 53 99 56 74 71 60 49 56 64 39 5
73 68 60 54 60 69 76 68 51 63 106 72 35 19 360 49 63 89 97 141 104 90 82 103 106 88 55 35 56 37 75 332
65 75 77 79 55 62 56 72 31 57 65 72 60 358 45 52 32 45 50 48 58 76 66 55 35 74 81 54 63 48 23 4
70 57 55 55 60 58 55 59 53 50 62 68 108 118 74 97 91 69 77 86 84 89 101 81 66 77 50 54 56 33 22 23
67 63 54 58 51 44 53 39 45 37 54 82 61 50 53 49 38 55 20 44 61 70 92 74 50 40 63 65 66 72 22 334
58 59 58 58 45 44 61 55 53 34 10 49 53 43 57 331 26 122 126 112 87 92 91 134 116 112 82 49 69 68 78 343
47 53 73 61 43 31 30 35 23 51 82 59 51 54 30 360 354 36 108 106 127 139 146 138 130 73 119 183 83 50 156 110
37 36 37 37 32 32 32 28 25 17 8 17 66 100 99 52 17 337 299 295 127 137 142 146 155 149 151 141 177 174 239 260
37 36 34 32 25 22 26 24 24 10 12 12 8 339 311 229 193 203 212 250 248 189 185 175 179 181 184 179 184 224 259 223
35 32 30 28 29 27 28 24 22 13 4 356 4 358 339 319 317 308 249 224 225 206 207 211 194 189 197 184 179 196 206 248
26 26 25 11 12 10 8 6 4 1 351 355 358 346 348 333 318 296 274 277 261 224 214 211 208 197 196 180 188 196 203 230
16 17 8 359 355 347 349 345 337 336 338 336 336 334 335 332 328 326 320 309 306 292 262 249 258 243 239 220 216 225 204 238
1 345 334 329 324 316 303 305 298 303 308 300 323 320 315 311 306 312 313 304 293 286 282 284 286 285 277 253 238 243 241 262
330 330 328 326 320 323 318 304 295 292 294 296 297 294 298 305 304 296 292 296 293 283 291 278 260 257 244 234 243 245 275 287